Temperature
15 15 15 15 15 15 15 15 15 15 15 15 15 15 14 14 14 14 14 14 15 15 15 15 15 15 15 15 15 15 15 15 15 15 15 15 15 15 15 15 15 15 15
15 15 15 15 14 14 14 14 14 14 14 14 14 14 14 14 14 14 14 14 14 14 14 14 14 14 14 14 14 14 14 14 14 14 15 15 15 14 14 14 14 14 14
14 14 14 14 14 14 14 14 14 14 14 14 14 14 14 14 14 14 14 14 14 14 14 14 14 14 14 14 14 14 14 14 14 14 14 14 14 14 14 14 14 14 14
14 14 14 14 14 14 14 14 14 14 14 14 14 14 14 14 14 14 14 14 14 13 14 14 14 14 14 14 14 14 14 14 14 14 14 14 14 14 14 14 14 14 14
14 14 14 14 14 14 14 14 14 14 14 14 14 13 13 13 13 13 13 13 13 13 13 13 14 14 14 14 14 14 14 14 14 14 14 14 14 14 14 14 14 14 14
14 14 14 14 14 14 14 13 13 13 13 13 13 13 13 13 13 13 13 13 13 13 13 13 13 13 13 14 13 13 13 13 13 13 14 14 14 14 14 14 14 14 14
14 14 14 14 14 13 13 13 13 13 13 13 13 13 13 13 13 13 13 13 13 13 13 13 13 13 13 13 13 13 13 13 13 13 13 13 13 13 13 13 13 13 13
14 14 13 13 13 13 13 13 13 13 13 13 13 13 14 14 13 13 13 12 12 12 12 12 12 12 12 12 13 13 13 13 13 13 13 13 13 13 13 13 13 13 13
13 13 13 13 13 13 13 13 13 13 13 12 13 13 14 14 13 13 12 12 12 12 12 12 12 12 12 12 12 12 12 12 12 12 13 13 13 13 13 13 13 13 13
13 13 13 13 13 13 13 12 12 12 12 12 12 12 12 12 13 13 12 12 12 12 12 12 12 12 12 11 12 12 12 12 12 12 12 12 12 12 12 12 13 13 12
13 13 13 13 12 12 12 12 12 12 12 12 12 12 12 12 12 13 12 12 12 11 11 12 11 11 11 11 11 12 12 12 12 12 12 12 12 12 12 12 12 12 12
13 13 12 12 12 12 12 12 12 12 12 12 12 12 12 12 12 12 12 12 12 11 11 11 11 11 11 11 11 12 12 12 12 12 12 12 12 12 12 12 12 12 12
12 12 12 12 12 12 12 12 12 11 12 12 11 12 11 11 11 11 12 12 11 11 11 11 11 11 11 11 11 11 11 12 12 12 12 12 12 12 12 12 12 12 12
12 12 12 12 12 11 11 11 11 11 11 11 11 11 11 11 11 11 11 11 11 11 11 11 10 10 10 11 11 11 11 11 11 12 12 11 12 12 12 12 12 12 12
12 12 11 11 11 11 11 11 11 11 11 11 11 11 11 11 11 11 11 11 11 11 11 11 10 10 10 10 11 11 11 11 11 11 11 11 11 11 11 11 11 11 11
12 12 11 11 11 11 11 11 11 11 11 11 11 11 11 11 11 10 10 10 11 11 11 11 10 10 10 10 10 10 11 11 11 11 11 11 11 11 11 11 11 11 11
11 11 11 11 11 11 11 11 11 11 10 11 10 10 10 10 10 10 10 10 10 10 10 10 10 10 10 10 10 10 10 10 10 11 11 11 11 11 11 11 11 11 11
11 11 11 11 11 11 10 10 10 10 10 10 10 10 10 10 10 10 10 10 10 10 10 10 10 10 10 10 10 10 10 10 10 10 11 11 11 10 10 10 10 10 10
11 10 10 10 10 10 10 10 10 10 10 10 10 10 10 10 10 10 10 10 10 10 10 9 10 10 10 10 10 10 10 10 10 10 10 10 10 10 10 10 10 10 10
10 10 10 10 10 10 10 10 10 10 10 10 10 9 9 9 9 9 10 9 9 9 9 9 9 9 9 10 10 10 10 10 10 10 10 10 10 10 10 10 10 10 10
10 10 10 10 9 9 10 10 9 9 9 9 9 9 9 9 9 9 9 9 9 9 9 9 9 9 9 9 9 9 9 9 10 10 10 10 10 9 10 10 10 10 10
10 10 9 9 9 9 9 9 9 9 9 9 9 9 9 9 9 9 9 9 9 9 9 9 9 9 9 9 9 9 9 9 9 9 9 9 9 9 9 9 10 10 9
9 9 9 9 9 9 9 9 9 9 8 9 9 9 9 9 9 9 9 9 9 9 9 9 8 9 9 9 9 9 9 9 9 9 9 9 9 9 9 9 9 10 10
9 9 9 9 9 9 9 9 9 8 8 8 8 8 8 9 9 8 8 8 9 9 9 9 8 9 9 9 9 9 9 9 8 9 9 9 9 9 9 9 9 9 9
8 8 8 8 8 8 8 8 8 8 8 8 8 8 8 8 9 8 8 8 8 8 9 9 9 9 9 9 9 8 8 8 8 8 8 8 8 8 9 9 9 9 9
8 8 8 8 8 8 8 8 8 8 8 8 8 8 8 8 8 8 8 8 8 8 8 8 8 8 8 8 8 8 8 8 7 7 8 8 8 8 8 8 9 9 9
Wind_Speed
5 6 5 6 6 6 6 6 6 7 7 7 7 7 8 8 8 8 8 12 12 12 11 11 11 11 11 11 11 11 10 9 8 8 7 7 7 6 7 7 7 7 7
5 5 5 5 6 6 6 5 6 6 6 6 7 8 8 8 8 8 7 9 11 12 12 12 11 11 11 11 11 11 11 10 9 9 8 8 7 7 7 7 7 7 7
5 5 4 5 5 5 5 5 6 5 5 5 6 6 7 7 7 8 7 7 8 11 12 12 12 12 11 10 10 11 11 11 10 9 9 8 7 7 7 7 7 7 7
5 5 4 4 5 4 4 4 4 4 4 4 4 4 5 5 6 7 7 7 7 7 10 12 12 12 11 11 10 11 11 11 10 9 9 8 7 6 6 6 6 6 5
5 4 4 4 4 3 3 3 3 3 4 4 4 4 4 4 5 5 6 7 7 7 7 8 10 11 11 11 10 11 11 10 10 8 7 8 8 7 6 6 6 6 5
5 4 3 4 4 3 3 3 3 3 3 3 3 3 3 3 3 4 5 5 6 7 7 7 6 7 9 10 10 10 10 10 9 8 7 7 6 6 6 6 6 6 6
4 5 3 3 3 3 3 3 3 3 3 2 2 2 2 3 4 3 3 4 5 6 5 6 6 6 6 7 9 9 9 9 9 9 8 7 6 6 6 6 6 5 6
4 3 3 3 3 2 2 3 2 1 2 2 2 2 0 1 2 3 3 3 4 4 5 6 6 6 6 6 8 9 10 10 10 9 8 7 7 7 7 6 6 6 6
3 3 3 3 2 2 1 1 1 1 1 2 3 2 2 1 2 1 3 2 3 4 4 5 5 6 6 6 6 8 9 9 9 9 9 8 7 7 7 6 6 5 5
2 2 2 2 2 2 1 1 1 1 1 1 2 2 3 2 2 1 1 2 3 4 4 3 4 5 5 5 6 7 8 9 8 8 8 8 7 7 7 7 6 6 5
1 1 1 1 1 1 1 1 1 2 2 2 2 1 2 1 3 2 2 1 2 2 3 3 3 3 4 4 5 7 8 8 8 8 8 8 7 7 6 7 6 6 6
1 1 1 1 1 1 1 1 2 2 2 2 2 2 2 2 2 2 2 2 2 2 2 2 2 3 3 4 5 7 7 7 8 8 8 8 7 7 6 6 6 6 5
1 1 1 1 1 1 2 2 2 2 2 2 2 2 2 3 2 2 2 2 2 2 1 1 2 2 2 3 4 5 5 6 6 7 7 7 7 7 7 6 5 5 5
1 1 2 1 1 1 2 1 2 2 2 2 3 2 2 2 2 2 2 2 2 2 2 1 1 2 2 2 3 3 3 4 5 6 6 6 7 6 6 6 5 5 5
1 1 2 2 2 1 2 2 2 2 3 3 2 2 2 2 2 2 2 3 3 3 2 1 1 1 2 2 2 2 2 3 3 4 4 5 5 6 6 5 5 5 5
1 2 2 2 2 2 2 2 2 2 3 2 2 2 2 2 2 2 2 3 3 3 3 2 2 1 1 1 2 2 2 1 1 2 3 3 3 4 4 4 4 4 4
2 2 2 2 2 2 2 2 2 2 2 2 2 2 2 2 2 1 2 2 2 2 2 2 2 1 2 2 2 2 2 1 1 2 2 2 2 2 3 3 3 3 3
2 2 2 2 2 2 3 2 2 2 2 2 2 2 2 1 2 2 2 2 2 2 2 2 2 2 2 2 2 2 2 1 1 2 2 1 1 1 1 1 2 2 3
2 2 2 2 2 2 2 3 3 3 2 2 2 2 3 3 3 3 3 3 2 2 2 2 2 2 2 2 3 3 2 2 2 2 3 3 2 2 2 1 1 1 2
2 2 2 2 2 2 3 3 3 3 3 3 3 3 3 3 4 4 3 3 2 3 3 3 3 2 2 2 3 3 2 2 2 2 1 2 3 4 3 4 3 2 2
2 2 2 2 2 2 2 3 3 3 3 3 3 3 3 4 5 4 3 3 3 3 3 3 3 3 3 2 2 3 3 3 3 2 2 2 2 2 3 5 5 4 3
2 2 2 2 2 2 2 4 5 4 4 4 4 4 4 3 4 4 4 5 4 4 4 4 3 4 4 4 3 3 3 3 2 2 2 3 3 3 3 3 4 5 5
2 2 3 3 3 2 2 3 5 5 5 5 5 5 4 4 4 5 5 6 6 6 6 6 6 5 5 4 4 4 4 4 4 2 2 3 3 3 3 3 5 6 6
3 3 3 3 4 3 2 3 5 6 5 5 5 5 5 5 4 5 5 4 5 5 6 6 6 6 5 5 5 5 4 4 4 3 3 3 3 3 3 3 5 7 8
3 3 3 4 4 4 2 4 5 5 5 5 5 5 5 6 4 5 5 5 5 4 5 6 6 5 4 3 4 4 4 4 3 3 3 3 3 3 3 3 4 7 8
3 3 3 4 5 5 3 4 6 4 5 5 5 5 4 6 5 5 6 6 6 5 4 4 5 5 5 4 5 5 5 4 3 3 2 3 3 3 3 2 2 3 5
Wind_Direction
67 67 66 62 60 63 66 65 67 63 60 58 56 56 56 54 54 56 58 52 47 47 48 47 46 44 43 42 41 40 39 47 48 53 54 56 61 70 75 70 70 68 62
64 64 68 65 63 60 62 67 68 65 62 60 57 57 55 54 52 55 56 60 56 51 47 44 41 40 42 43 43 42 40 44 52 54 54 56 61 69 72 73 71 67 62
60 66 63 66 66 65 67 67 68 64 63 62 60 57 56 51 51 51 50 48 56 59 52 46 41 38 40 42 43 44 44 48 53 52 52 54 60 65 67 69 71 69 67
61 65 62 63 63 63 65 68 63 64 60 53 53 52 57 56 48 48 50 50 47 48 56 50 41 40 42 41 45 47 47 49 50 50 51 52 58 62 65 68 71 71 70
61 71 67 65 66 64 62 63 59 55 58 53 50 50 47 49 47 43 46 46 48 42 46 55 48 43 42 42 44 47 44 44 45 45 48 53 57 59 64 68 70 67 64
60 63 69 64 60 61 61 63 65 58 54 49 48 51 50 53 54 45 41 43 41 40 36 36 38 50 48 42 42 42 41 42 42 43 46 53 58 58 65 70 68 65 66
65 66 61 67 59 58 58 66 66 68 57 41 44 51 76 67 60 51 38 33 38 34 31 36 31 30 45 56 46 38 37 39 38 39 41 48 54 60 64 71 75 73 70
68 67 63 60 65 66 61 64 65 46 45 12 349 335 15 99 55 42 38 29 28 32 27 28 32 37 34 44 51 41 37 37 37 39 40 48 54 61 63 67 75 80 77
65 65 60 61 60 62 62 43 39 23 9 13 2 345 328 360 1 48 29 31 28 18 18 23 26 32 40 44 47 49 38 33 34 36 39 47 52 60 61 67 77 84 82
51 52 51 56 60 39 32 10 20 1 341 346 6 3 351 343 302 325 20 28 22 18 14 16 20 30 40 40 48 42 35 27 29 31 36 41 45 55 61 65 73 77 76
34 23 21 44 22 4 0 360 354 334 330 330 334 338 348 326 297 298 304 334 8 22 15 11 21 19 29 36 36 43 36 30 31 31 33 33 38 51 60 66 71 75 76
1 10 354 342 329 330 326 325 328 314 319 324 314 303 297 299 301 307 294 300 333 359 12 14 12 22 23 32 42 41 35 32 33 32 32 32 37 48 54 65 70 74 77
280 307 311 308 312 315 318 309 304 308 304 305 301 305 308 306 295 294 289 290 304 304 313 341 18 21 18 21 41 37 42 34 34 33 36 38 41 47 50 57 63 66 71
288 294 298 304 308 310 306 311 302 311 311 300 297 303 302 308 300 285 288 283 282 286 284 319 13 6 15 23 38 357 44 42 33 34 38 39 44 48 49 52 57 59 66
292 288 285 291 291 296 298 295 295 304 311 308 298 292 294 308 297 290 289 280 282 280 286 303 315 338 356 11 17 356 10 53 38 33 44 42 46 51 50 51 57 59 62
282 273 267 274 278 281 283 285 295 308 306 315 307 293 292 294 300 292 289 285 283 277 280 301 301 301 342 339 345 336 353 67 73 49 55 56 58 53 52 57 58 61 66
273 267 259 261 267 269 268 265 278 292 302 311 309 297 285 288 297 295 293 278 278 278 267 287 294 305 298 307 323 325 322 305 117 104 83 86 82 70 61 59 60 65 73
270 266 263 263 271 278 277 275 278 287 293 303 312 307 301 294 280 286 283 265 258 260 259 274 285 290 291 297 296 289 291 293 264 131 142 151 144 132 112 88 76 76 87
266 260 260 264 275 283 280 280 281 282 283 287 291 289 286 289 278 274 268 255 251 251 250 247 263 268 277 280 288 276 262 268 257 178 176 185 190 198 210 192 156 111 110
266 266 271 273 279 283 280 278 284 280 282 286 285 282 284 283 280 280 265 254 246 246 246 240 247 254 264 275 267 268 273 265 255 230 213 208 201 207 215 213 203 189 177
263 266 266 269 277 279 287 285 278 279 282 285 287 287 292 305 309 301 284 263 245 244 241 244 249 253 258 266 272 277 274 275 256 234 243 233 222 225 217 208 204 205 210
266 264 261 264 271 278 321 311 296 276 280 280 280 280 280 272 276 278 283 287 278 259 251 244 249 258 262 262 260 265 272 272 261 226 247 253 235 238 243 229 195 200 215
266 270 266 267 269 275 302 296 290 281 275 278 278 277 278 277 276 273 250 250 254 265 272 262 257 261 264 259 251 250 251 260 270 271 264 255 240 241 238 221 199 207 218
260 266 276 275 275 278 282 282 280 266 269 270 273 275 275 279 279 288 271 259 259 254 256 258 260 266 267 263 247 247 245 254 263 251 241 254 257 257 255 235 199 208 220
262 267 274 279 278 277 278 276 274 266 266 268 269 271 276 280 297 294 272 262 261 260 241 250 273 286 291 274 248 235 226 227 248 254 236 249 260 268 263 244 212 207 221
262 268 273 277 279 283 288 278 273 263 267 269 268 267 277 288 301 287 262 262 263 267 270 253 245 249 253 228 212 225 229 230 240 248 220 242 258 262 254 236 233 223 223
Height
1538 1538 1537 1536 1536 1535 1535 1534 1535 1534 1534 1534 1534 1534 1533 1533 1533 1532 1531 1530 1529 1528 1528 1527 1526 1524 1523 1522 1520 1519 1519 1518 1517 1516 1516 1516 1516 1515 1515 1515 1515 1515 1515
1540 1539 1539 1538 1537 1537 1537 1537 1536 1536 1536 1535 1535 1535 1534 1534 1534 1533 1532 1531 1530 1529 1528 1527 1526 1525 1523 1522 1521 1520 1519 1518 1517 1516 1516 1516 1516 1515 1515 1515 1515 1515 1515
1541 1541 1540 1540 1539 1539 1538 1538 1538 1537 1537 1537 1536 1536 1535 1535 1535 1534 1533 1533 1531 1530 1529 1527 1526 1525 1524 1523 1522 1520 1519 1519 1518 1517 1516 1516 1516 1515 1515 1515 1515 1515 1515
1542 1542 1541 1541 1540 1540 1540 1539 1539 1538 1538 1538 1537 1537 1536 1536 1535 1535 1534 1533 1532 1531 1530 1528 1527 1526 1524 1523 1522 1521 1520 1519 1518 1518 1517 1516 1516 1515 1515 1515 1515 1515 1515
1543 1543 1542 1542 1542 1541 1541 1540 1540 1540 1539 1538 1538 1537 1537 1537 1536 1535 1535 1534 1533 1531 1530 1529 1527 1526 1525 1524 1523 1522 1521 1520 1519 1518 1517 1516 1515 1515 1514 1514 1514 1514 1514
1544 1544 1543 1543 1542 1542 1542 1541 1540 1540 1539 1539 1538 1538 1537 1537 1536 1535 1535 1534 1533 1532 1531 1529 1528 1527 1525 1524 1523 1522 1521 1521 1519 1518 1517 1516 1515 1514 1513 1513 1513 1513 1514
1545 1544 1544 1544 1543 1543 1542 1542 1541 1541 1540 1539 1539 1538 1538 1537 1537 1535 1535 1534 1533 1532 1530 1529 1528 1527 1526 1524 1523 1522 1522 1521 1520 1519 1518 1516 1515 1513 1513 1512 1512 1512 1513
1545 1545 1545 1544 1544 1543 1542 1542 1541 1541 1541 1540 1540 1539 1539 1539 1537 1536 1535 1534 1533 1532 1531 1530 1528 1527 1526 1525 1524 1523 1522 1521 1520 1519 1518 1516 1515 1513 1512 1511 1511 1512 1513
1545 1545 1545 1545 1544 1544 1543 1542 1542 1541 1541 1541 1540 1541 1540 1538 1538 1537 1536 1534 1533 1532 1531 1530 1529 1528 1527 1526 1525 1523 1522 1521 1520 1519 1518 1516 1514 1513 1512 1511 1511 1512 1513
1545 1545 1544 1544 1544 1543 1543 1542 1542 1541 1541 1541 1540 1539 1540 1539 1539 1537 1537 1535 1533 1532 1531 1530 1529 1528 1527 1526 1525 1523 1522 1521 1520 1519 1518 1516 1515 1514 1513 1512 1512 1513 1513
1544 1544 1544 1543 1543 1543 1542 1541 1541 1540 1540 1540 1540 1539 1538 1538 1538 1537 1536 1536 1534 1532 1530 1529 1528 1528 1527 1526 1524 1523 1522 1521 1520 1519 1518 1517 1515 1515 1514 1514 1513 1514 1514
1544 1544 1543 1543 1542 1542 1541 1540 1540 1539 1539 1539 1538 1538 1538 1537 1537 1536 1535 1535 1534 1532 1531 1529 1528 1527 1526 1525 1524 1523 1522 1521 1520 1519 1518 1517 1516 1515 1515 1515 1515 1515 1515
1543 1543 1542 1542 1541 1540 1540 1539 1539 1538 1538 1537 1537 1537 1536 1536 1535 1535 1535 1534 1533 1532 1531 1530 1529 1527 1526 1525 1524 1523 1522 1521 1520 1519 1518 1517 1516 1516 1515 1516 1516 1516 1516
1542 1542 1541 1540 1540 1539 1539 1538 1537 1537 1537 1536 1536 1535 1534 1534 1534 1533 1533 1533 1532 1532 1531 1530 1529 1527 1526 1525 1523 1522 1522 1521 1520 1519 1518 1517 1516 1516 1516 1516 1516 1516 1516
1541 1540 1540 1539 1539 1538 1537 1537 1536 1536 1535 1534 1534 1534 1533 1532 1532 1531 1531 1532 1532 1530 1530 1529 1528 1526 1525 1524 1523 1522 1521 1520 1519 1518 1517 1517 1516 1516 1516 1516 1516 1516 1516
1539 1538 1538 1538 1537 1537 1536 1535 1535 1534 1533 1532 1532 1532 1531 1530 1530 1529 1529 1529 1529 1529 1528 1528 1527 1525 1524 1523 1522 1521 1520 1519 1518 1517 1517 1516 1516 1516 1516 1516 1516 1516 1516
1537 1537 1536 1536 1536 1535 1534 1534 1533 1533 1532 1531 1530 1530 1529 1529 1528 1528 1528 1527 1527 1527 1526 1526 1525 1524 1523 1522 1521 1520 1519 1518 1518 1517 1516 1516 1515 1515 1515 1515 1515 1515 1515
1535 1535 1535 1534 1534 1533 1533 1532 1531 1531 1530 1529 1529 1528 1528 1527 1527 1526 1526 1525 1525 1525 1525 1524 1523 1522 1521 1520 1519 1519 1518 1518 1517 1516 1516 1515 1515 1515 1514 1515 1515 1514 1514
1533 1533 1533 1532 1532 1531 1531 1531 1530 1529 1528 1528 1527 1527 1526 1526 1525 1524 1524 1523 1523 1523 1522 1522 1521 1520 1519 1518 1518 1517 1517 1516 1516 1515 1514 1514 1514 1514 1514 1513 1514 1514 1513
1532 1531 1531 1530 1530 1529 1529 1529 1528 1527 1526 1526 1525 1525 1524 1524 1523 1523 1522 1521 1521 1521 1520 1520 1519 1518 1517 1517 1516 1516 1515 1515 1514 1514 1513 1513 1513 1512 1512 1512 1512 1512 1512
1529 1529 1529 1528 1528 1527 1527 1527 1526 1525 1524 1524 1523 1522 1522 1521 1521 1520 1520 1519 1519 1519 1518 1517 1517 1516 1516 1515 1514 1514 1514 1513 1513 1512 1512 1512 1511 1511 1511 1510 1510 1511 1511
1527 1527 1526 1526 1525 1525 1524 1524 1524 1523 1522 1521 1521 1520 1520 1519 1518 1517 1517 1517 1517 1516 1515 1515 1514 1514 1513 1513 1512 1512 1512 1511 1511 1511 1510 1510 1510 1509 1509 1509 1508 1509 1509
1524 1524 1524 1523 1523 1522 1522 1521 1521 1520 1520 1519 1518 1518 1517 1517 1516 1515 1514 1513 1513 1513 1512 1512 1512 1512 1511 1510 1509 1509 1509 1509 1509 1509 1508 1508 1508 1507 1507 1507 1506 1506 1506
1522 1521 1521 1521 1520 1520 1519 1518 1518 1517 1517 1516 1516 1515 1514 1514 1513 1512 1511 1510 1510 1509 1509 1509 1509 1509 1508 1507 1507 1507 1507 1506 1506 1506 1506 1506 1505 1505 1505 1504 1504 1504 1504
1519 1518 1518 1518 1517 1517 1516 1515 1515 1514 1514 1513 1512 1512 1511 1511 1510 1509 1508 1507 1506 1506 1505 1505 1505 1505 1504 1504 1504 1504 1504 1504 1503 1504 1504 1503 1503 1502 1502 1501 1501 1501 1501
1516 1515 1515 1515 1514 1514 1513 1512 1512 1512 1511 1510 1509 1508 1508 1507 1506 1505 1505 1504 1503 1502 1502 1501 1501 1501 1500 1500 1500 1500 1500 1500 1500 1501 1501 1501 1500 1500 1499 1499 1498 1498 1497